Regional Weather Roundup
Issued by NWS

Home | Current Version | Previous Version | Text Only | Print | Product List | Glossary On
Versions: 1 2 3 4 5 6 7 8 9 10 11 12 13 14 15 16 17 18 19 20 21 22 23 24 25 26 27
000
ASCA42 TJSJ 061010
RWRPR
PUERTO RICO/U.S. VIRGIN ISLANDS HOURLY WEATHER ROUNDUP
NATIONAL WEATHER SERVICE SAN JUAN PR
600 AM AST FRI MAY 06 2016

PRZ001-004-061100-
PUERTO RICO

CITY           SKY/WX    TMP DP  RH WIND       PRES   REMARKS
SAN JUAN LMM   PTCLDY    79  75  89 SE3       29.91R
CEIBA          CLEAR     79  75  89 S7        29.94R
$$

PRZ006-007-061100-
U.S. VIRGIN ISLANDS

CITY           SKY/WX    TMP DP  RH WIND       PRES   REMARKS
CHARLOTTE AMA  PTCLDY    81  75  83 E14       29.93R
CHRISTIANSTED  PTCLDY    81  75  83 SE10      29.94R
$$

HOURLY WEATHER ROUNDUP FOR THE NEWS MEDIA

CITY           SKY/WX    TMP DP  RH WIND       PRES   REMARKS
ORLANDO        CLEAR     61  44  53 W3        29.84R
NEW YORK       RAIN      49  46  90 NE7       29.69S FOG
NEWARK         RAIN      49  47  93 NE8       29.68R FOG
CHICAGO        CLOUDY    48  42  80 W8        29.96S
HARTFORD       CLOUDY    46  43  89 N8        29.71R
BOSTON         CLOUDY    48  42  80 N6        29.74R
DALLAS         CLEAR     60  52  74 CALM      30.04R
PHILADELPHIA   RAIN      51  46  83 NE16      29.65S
LOS ANGELES    MOCLDY    59  54  83 CALM      29.84F
WASHINGTON DC  DRIZZLE   52  48  86 N10       29.66S



USA.gov is the U.S. government's official web portal to all federal, state and local government web resources and services.